Regional Weather Roundup
Issued by NWS

Home | Current Version | Previous Version | Text Only | Print | Product List | Glossary On
Versions: 1 2 3 4 5 6 7 8 9 10 11 12 13 14 15 16 17 18 19 20 21 22 23 24 25 26 27 28 29 30 31 32 33 34 35 36 37 38 39 40 41 42 43 44 45 46 47 48 49 50
000
ASUS46 KSEW 251010
RWRWA

WASHINGTON REGIONAL WEATHER ROUNDUP
NATIONAL WEATHER SERVICE SEATTLE WA
300 AM PDT MON SEP 25 2017

NOTE:"FAIR" INDICATES FEW OR NO CLOUDS BELOW 12,000 FEET WITH NO
SIGNIFICANT WEATHER AND/OR OBSTRUCTIONS TO VISIBILITY.

WAZ507-509-555>559-251100-
SEATTLE, TACOMA, EVERETT, AND VICINITY

CITY           SKY/WX    TMP DP  RH WIND       PRES   REMARKS
EVERETT        CLOUDY    58  50  75 N5        30.10F
BOEING FIELD   CLOUDY    59  51  75 SE6       30.09F
RENTON         CLOUDY    59  52  77 S5        30.09F
SEATAC AIRPORT CLOUDY    59  51  75 SE5       30.10S
JBLM-MCCHORD   CLOUDY    55  55  99 CALM      30.09F
PUYALLUP       CLOUDY    55  54  94 CALM      30.10F
BREMERTON      CLOUDY    54  52  93 CALM      30.10S
JBLM-FT LEWIS  CLOUDY    55  53  94 SE6       30.09F
TACOMA NARROWS CLOUDY    57  53  86 CALM      30.09F
$$

WAZ001-503-506-510-514-515-251100-
NORTH INTERIOR

CITY           SKY/WX    TMP DP  RH WIND       PRES   REMARKS
BELLINGHAM     CLOUDY    58  55  90 S6        30.08S
FRIDAY HARBOR  LGT RAIN  53  53 100 VRB3      30.08F
EASTSOUND      CLOUDY    57  54  88 S7        30.07S
PORT ANGELES   LGT RAIN  56  54  93 W7        30.09F
EDIZ HOOK      PTSUNNY   56  53  88 W5        30.08F
PORT TOWNSEND  CLOUDY    52  50  93 CALM      30.10S
NAS WHIDBEY    LGT RAIN  57  52  83 SW3       30.13F
ARLINGTON      CLOUDY    53  51  93 N3        30.10F
BURLINGTON     CLOUDY    55  54  94 CALM      30.10S
$$

WAZ020-022-039-040-504-511-512-251100-
SOUTHWEST INTERIOR

CITY           SKY/WX    TMP DP  RH WIND       PRES   REMARKS
SHELTON        CLOUDY    56  53  90 SW5       30.08S
OLYMPIA        CLOUDY    56  51  84 CALM      30.10S
CHEHALIS       FAIR      55  54  94 SW3       30.10F
KELSO          CLOUDY    55  53  93 CALM      30.12S
VANCOUVER      MOCLDY    57  54  89 CALM      30.10F
SCAPPOOSE, OR  CLOUDY    53  51  93 CALM      30.10S
PORTLAND, OR   CLOUDY    57  54  89 SE6       30.11F
$$

WAZ021-516-517-251100-
WASHINGTON COAST

CITY           SKY/WX    TMP DP  RH WIND       PRES   REMARKS
FORKS          LGT RAIN  54  54 100 CALM      30.10S VSB 1/2
HOQUIAM        CLOUDY    57  56  96 SW6       30.11S
ASTORIA, OR    CLOUDY    56  54  93 CALM      30.10F
$$

WAZ019-023-024-040-567>569-251100-
CASCADE MOUNTAINS AND COLUMBIA GORGE

CITY           SKY/WX    TMP DP  RH WIND       PRES   REMARKS
STAMPEDE PASS  NOT AVBL
TROUTDALE, OR  MOCLDY    54  50  86 E7        30.11S
HOOD RIVER, OR NOT AVBL
THE DALLES, OR MOCLDY    56  47  71 SW3       30.05S
$$

WAZ026-027-041>044-520-521-251100-
EAST SLOPES

CITY           SKY/WX    TMP DP  RH WIND       PRES   REMARKS
OMAK           PTCLDY    45  41  86 NW7       30.04F
WENATCHEE      PTCLDY    57  46  66 NW5       30.03S
ELLENSBURG     CLOUDY    59  46  62 NW12      30.04F
YAKIMA         PTCLDY    50  44  80 CALM      30.05S
SUNNYSIDE ARPT PTSUNNY   45  44  95 CALM      30.03F
YAKIMA TC      PTSUNNY   51  42  73 SW3       30.03S
$$

WAZ028-034-035-251100-
COLUMBIA BASIN

CITY           SKY/WX    TMP DP  RH WIND       PRES   REMARKS
EPHRATA        MOCLDY    51  39  63 N6        30.02F
MOSES LAKE     MOCLDY    47  41  80 CALM      30.03S
PASCO          MOCLDY    47  44  90 N3        30.03F
RICHLAND ARPT  PTSUNNY   50  47  90 SW3       30.04R
HERMISTON, OR  MOCLDY    51  45  79 SE3       30.04S
$$

WAZ036>038-251100-
NORTHEAST WASHINGTON

CITY           SKY/WX    TMP DP  RH WIND       PRES   REMARKS
SPOKANE GEIGER PTCLDY    53  42  66 S5        30.07S
SPOKANE FELTS  CLOUDY    53  46  77 CALM      30.07S
FAIRCHILD AFB  PTCLDY    50  42  73 S6        30.06S
COEURDALENE,ID CLOUDY    55  46  71 S7        30.07S
DEER PARK      CLOUDY    52  43  71 SE5       30.06S
$$

WAZ029>033-251100-
SOUTHEAST WASHINGTON

CITY           SKY/WX    TMP DP  RH WIND       PRES   REMARKS
PULLMAN        CLOUDY    52  42  69 E3        30.10S
LEWISTON, ID   CLOUDY    56  43  61 E6        30.08S
WALLA WALLA    PTCLDY    59  42  53 E7        30.04F
PENDLETON, OR  CLEAR     54  42  64 SE7       30.05F
$$



USA.gov is the U.S. government's official web portal to all federal, state and local government web resources and services.